This is the latest recevied weather packets stored in our database for station/object KT5AL. If no packets are shown the sender has not sent any weather packets the latest 10 day(s).
| Time | Temp. | Humidity | Pressure | Rain* | Wind** | Luminosity | Snow |
|---|---|---|---|---|---|---|---|
| 1778008202 | 29.44° C | 61% | 1001.6 hPa | 0 mm | - | - | - |
| 1778007906 | 28.89° C | 61% | 1001.6 hPa | 0 mm | - | - | - |
| 1778007608 | 28.89° C | 61% | 1001.6 hPa | 0 mm | - | - | - |
| 1778007305 | 28.33° C | 60% | 1001.6 hPa | 0 mm | - | - | - |
| 1778007006 | 28.33° C | 59% | 1001.6 hPa | 0 mm | - | - | - |
| 1778006703 | 28.33° C | 61% | 1001.6 hPa | 0 mm | - | - | - |
| 1778006405 | 28.33° C | 58% | 1001.6 hPa | 0 mm | - | - | - |
| 1778006108 | 28.33° C | 59% | 1001.6 hPa | 0 mm | - | - | - |
| 1778005805 | 28.33° C | 59% | 1001.6 hPa | 0 mm | - | - | - |
| 1778005507 | 28.33° C | 64% | 1001.6 hPa | 0 mm | - | - | - |
| 1778005204 | 28.33° C | 65% | 1001.6 hPa | 0 mm | - | - | - |
| 1778004906 | 28.33° C | 67% | 1001.9 hPa | 0 mm | - | - | - |
| 1778004604 | 28.33° C | 67% | 1001.9 hPa | 0 mm | - | - | - |
| 1778004306 | 27.78° C | 68% | 1002.2 hPa | 0 mm | - | - | - |
| 1778004003 | 27.22° C | 69% | 1002.2 hPa | 0 mm | - | - | - |
| 1778003707 | 27.22° C | 68% | 1002.2 hPa | 0 mm | - | - | - |
| 1778003403 | 27.22° C | 70% | 1002.2 hPa | 0 mm | - | - | - |
| 1778003107 | 27.22° C | 70% | 1002.2 hPa | 0 mm | - | - | - |
| 1778002803 | 26.67° C | 71% | 1002.2 hPa | 0 mm | - | - | - |
| 1778002507 | 26.67° C | 74% | 1002.6 hPa | 0 mm | - | - | - |
| 1778002230 | 26.67° C | 74% | 1002.6 hPa | 0 mm | - | - | - |
| 1778001907 | 26.11° C | 74% | 1002.2 hPa | 0 mm | - | - | - |
| 1778001604 | 26.11° C | 74% | 1002.2 hPa | 0 mm | - | - | - |
| 1778001306 | 26.11° C | 74% | 1002.9 hPa | 0 mm | - | - | - |
| 1778001004 | 26.11° C | 76% | 1002.9 hPa | 0 mm | - | - | - |
* Rain latest hour (hover to see other rain measurements)
** Current wind speed in m/s (hover to see current wind gust speed)